Airfield :
LOGIN :

Register | Disclaimer

   EN    FR    IT 

 










Legend :    VFR   Marginal VFR   IFR   Intensive IFR   Very Intensive IFR
Visi :
Ceiling :
>= 8 km
>= 3000ft
5 to 8 km
1000 to 3000 ft
1500m to 5 km
500 to 1000 ft
800 to 1500m
200 to 500 ft
< 800m
< 200 ft
Symbols :   Thunderstorms  Fog  Heavy snow  Heavy precipitations  Wind > 20 kt
SIGMETs :     Misc.  Thunderstorms  Icing  Turbulence  Mountain Waves  Volcanic Ashes







- Airport Elevation : 598 ft
- IATA code : BQH
- Download approach charts


EGKB - Biggin Hill

CURRENT METAR :
  • 171420Z 20014KT 9999 FEW036 19/11 Q1018

EXPIRED METARs :
  • 171350Z 22012KT 190V260 9999 FEW035 19/11 Q1018
  • 171320Z 21011KT 180V240 9999 FEW035 19/11 Q1018
  • 171250Z 20012KT 160V230 9999 FEW035 19/12 Q1018
  • 171220Z 21014KT 9999 FEW030 19/12 Q1018
  • 171150Z 22010KT 180V280 9999 FEW030 19/11 Q1018

TAF TAF EGKB
Valid from the 17 at 15:00 until the 17 at 23:00 UTC


171355Z 1715/1723 21011KT 9999 FEW025
No reported NOTAMs for that airfield.



MET'MAP, your aeronautical weather chart ! - Copyright ORBIFLY December 2007 - Disclaimer

ORBIFLY MET'MAP TEAM :

Programming & Development : Alexandra Zaïnal
Concept & Development : Baudouin d'Aumeries
Co-Development & Prog : Marc-Olivier Méhu
Technical & hardware support : Manuel Goepfert

Contact : metmap@orbifly.com




SOURCES & CREDITS :

   NOAA